Find Kosmos-2065

NORAD ID: 20550 Int'l Des: 1990-029 Owner: UNKS Country: SU operational
LEOCIRCULAR

現在のビュー

3D地球を読み込み中...

About Kosmos-2065

Kosmos-2065 (NORAD 20550) is a satellite launched Apr 6, 1990 by UNKS of SU. It operates in LEO, CIRCULAR orbit with a mass of 60.00 kg.

次回通過

Passes for default location (London). Set your location on the main map for personalized predictions.

高度履歴

Loading altitude history...

軌道要素

1 20550U 90029B 26195.60758809 .00000012 00000-0 18474-3 0 9998
2 20550 73.9809 262.3439 0008900 298.3512 175.1595 12.49206526654135
Epoch: Jul 14, 2026 • Age: 7 hours

現在のステータス

高度 1479.7 km
遠地点 / 近地点 N/A
速度 7.13 km/s
衛星直下点 -49.54°S, 11.14°W
打ち上げ日 Apr 6, 1990
運用期間 36.2 years
タイプ other

技術仕様

分類 Payload
質量 60.00 kg
乾燥質量 60.00 kg
総質量 60.00 kg
長さ 0.80 m
直径 0.80 m
スパン 0.80 m
形状 Poly
製造者 NPOPM
バスタイプ Strela-1 11F625
フェーズステータス In Orbit
所有者/国 UNKS/SU

Most Searched